Temperature
21 19 16 17 18 19 19 19 18 13 12 13 12 9 8 8 8 8 7 7 6 5 4 3 2 1 -0 -1 -2 -3 -3 -4 -4 -4 -4 -5 -5 -5 -5 -5 -6 -6 -6 -6
19 16 17 18 18 19 19 19 17 12 12 13 11 10 9 8 8 7 6 7 6 5 4 3 2 0 -1 -2 -3 -4 -4 -5 -5 -5 -6 -6 -6 -6 -6 -6 -6 -7 -7 -7
16 16 18 19 17 17 19 16 15 14 11 11 11 10 9 8 7 7 7 7 6 5 4 3 1 -0 -2 -3 -4 -4 -5 -5 -6 -6 -6 -6 -6 -6 -6 -6 -7 -7 -8 -8
17 17 18 18 16 16 17 14 14 14 12 12 10 11 8 7 7 8 7 6 5 4 3 2 0 -1 -2 -3 -4 -5 -5 -6 -6 -6 -7 -7 -8 -8 -8 -8 -8 -8 -8 -8
15 15 16 16 15 15 15 14 14 14 13 13 11 11 9 8 7 7 7 6 5 4 3 1 -0 -1 -3 -4 -4 -5 -6 -6 -7 -7 -7 -8 -8 -9 -8 -8 -8 -8 -8 -9
15 16 15 15 15 15 15 15 14 14 13 13 15 12 10 8 8 6 6 5 4 3 2 1 -1 -2 -3 -4 -5 -5 -6 -7 -7 -7 -8 -8 -9 -9 -9 -9 -9 -9 -9 -9
16 16 15 15 15 16 15 15 15 15 14 15 15 14 8 6 6 6 6 5 4 3 1 -0 -1 -3 -3 -4 -5 -6 -6 -6 -7 -8 -8 -9 -9 -10 -10 -10 -10 -10 -10 -10
18 15 14 14 13 13 15 15 13 13 14 14 15 12 6 6 6 6 6 5 4 2 1 -1 -2 -3 -4 -5 -5 -5 -6 -7 -7 -8 -9 -9 -10 -10 -11 -11 -11 -11 -11 -11
16 15 13 13 13 13 14 13 13 12 13 13 14 6 6 7 7 6 5 4 3 1 -0 -1 -2 -3 -4 -5 -5 -6 -7 -7 -8 -8 -9 -10 -10 -11 -11 -11 -11 -12 -12 -12
14 16 14 13 13 13 14 13 12 13 12 11 13 12 7 6 6 6 5 4 2 1 -0 -2 -3 -3 -4 -5 -6 -6 -7 -8 -8 -9 -10 -10 -11 -11 -11 -12 -12 -12 -12 -12
14 14 14 14 14 14 14 14 14 13 12 10 10 10 7 6 6 5 5 3 2 0 -1 -2 -3 -4 -5 -5 -6 -7 -8 -8 -9 -9 -10 -11 -11 -12 -12 -12 -12 -12 -13 -13
13 13 15 14 11 11 12 13 12 11 12 12 10 8 7 6 6 5 4 3 1 -0 -1 -2 -3 -4 -5 -6 -7 -7 -8 -9 -9 -10 -10 -11 -11 -12 -12 -13 -13 -13 -13 -13
11 13 14 13 11 10 11 12 12 11 10 9 9 9 6 7 6 5 4 3 1 -1 -2 -3 -4 -5 -5 -6 -7 -8 -8 -9 -9 -10 -10 -11 -12 -12 -13 -13 -13 -13 -13 -13
10 11 13 14 14 11 12 12 11 10 9 9 10 11 6 6 5 5 4 2 0 -1 -3 -4 -4 -5 -6 -7 -7 -8 -9 -9 -10 -10 -11 -11 -12 -12 -13 -13 -14 -14 -14 -14
10 11 14 13 13 12 11 11 11 9 9 9 10 9 7 5 5 4 3 1 -1 -2 -3 -4 -5 -5 -6 -7 -8 -8 -9 -9 -10 -10 -11 -12 -12 -13 -13 -13 -14 -14 -14 -14
10 11 12 12 13 11 10 10 10 10 10 9 9 8 6 6 5 4 2 -0 -2 -3 -4 -4 -5 -5 -6 -7 -8 -8 -9 -9 -10 -11 -11 -12 -12 -13 -13 -13 -14 -14 -14 -14
11 11 11 10 13 12 10 11 10 10 10 9 8 8 6 6 4 3 1 -1 -2 -3 -4 -4 -5 -6 -7 -8 -8 -9 -9 -9 -10 -11 -12 -12 -12 -13 -13 -13 -14 -14 -14 -14
10 10 9 9 9 10 12 8 10 10 10 10 9 8 6 5 3 1 -0 -2 -3 -4 -4 -5 -5 -6 -7 -8 -8 -8 -9 -10 -11 -11 -12 -12 -12 -13 -13 -13 -13 -14 -14 -14
8 9 10 8 8 9 10 8 8 9 8 9 8 7 6 4 2 -2 -2 -2 -3 -4 -4 -5 -5 -6 -7 -8 -8 -8 -9 -10 -11 -11 -11 -12 -13 -13 -13 -13 -13 -13 -13 -13
7 7 7 7 6 8 11 8 8 8 6 7 7 6 4 3 0 -1 -2 -3 -3 -4 -4 -5 -6 -6 -7 -8 -8 -8 -9 -10 -11 -11 -11 -12 -13 -13 -13 -13 -13 -13 -13 -13
7 7 6 6 6 8 8 7 7 6 7 6 6 5 3 2 -0 -1 -2 -3 -3 -4 -4 -5 -6 -6 -7 -8 -8 -8 -9 -10 -11 -11 -11 -12 -12 -13 -13 -13 -13 -13 -13 -13
8 8 7 8 7 7 7 5 5 6 6 6 4 3 2 1 -1 -2 -3 -3 -3 -4 -4 -5 -6 -6 -7 -8 -8 -8 -9 -10 -10 -11 -11 -12 -12 -13 -13 -13 -13 -13 -13 -13
11 11 10 10 9 9 7 7 7 6 5 4 4 3 2 -0 -2 -3 -3 -3 -3 -4 -5 -5 -6 -6 -7 -8 -8 -9 -9 -9 -10 -10 -11 -11 -12 -12 -13 -13 -13 -13 -13 -13
11 12 9 8 9 9 8 7 6 5 5 4 3 2 1 -0 -2 -2 -3 -3 -4 -4 -5 -5 -6 -6 -7 -7 -8 -8 -9 -9 -9 -10 -11 -11 -12 -12 -13 -13 -13 -13 -13 -13
11 7 7 7 9 9 7 6 5 4 4 3 2 1 0 -1 -2 -2 -3 -3 -4 -5 -5 -6 -6 -6 -7 -7 -8 -8 -8 -8 -9 -10 -11 -11 -12 -13 -13 -13 -13 -13 -13 -13
10 9 7 9 11 8 7 6 5 4 3 3 2 1 -0 -1 -1 -2 -2 -3 -4 -5 -5 -5 -6 -6 -7 -7 -7 -8 -8 -8 -9 -10 -11 -11 -12 -13 -13 -13 -13 -13 -13 -13
Wind_Speed
6 7 7 8 7 7 7 7 6 5 3 1 4 9 8 6 4 4 6 6 6 7 8 9 9 10 10 11 12 13 13 13 14 11 12 12 12 11 13 18 22 22 23 25
7 7 7 4 3 6 5 6 5 6 4 2 4 7 9 7 4 5 3 4 6 8 9 9 10 9 9 10 12 12 13 13 13 11 10 9 10 9 14 19 21 21 23 24
9 4 6 5 9 9 3 5 5 2 5 3 3 7 11 9 6 6 4 2 8 9 9 9 10 9 9 10 11 13 11 11 14 17 14 12 7 9 9 10 8 19 23 22
7 5 5 5 7 7 4 5 6 3 3 4 7 3 8 10 8 7 3 7 8 8 8 9 10 9 9 9 9 10 11 9 12 15 11 13 12 12 13 11 10 19 23 22
5 6 7 6 5 6 5 3 5 6 5 4 7 5 5 9 8 6 7 8 7 7 9 9 9 8 8 8 8 9 10 9 11 12 10 10 10 9 10 11 12 10 17 20
5 3 4 4 5 5 8 7 7 5 4 5 4 6 4 3 6 8 7 6 7 8 9 8 8 8 8 8 8 8 10 10 9 9 9 10 11 12 13 13 12 12 9 13
6 5 3 4 6 2 6 7 2 3 4 3 2 2 6 8 10 7 5 6 8 8 8 8 9 9 9 9 9 9 10 11 11 10 10 11 11 11 11 12 12 13 12 11
3 4 4 5 5 5 6 6 4 5 6 6 4 4 7 9 7 3 5 6 7 8 8 8 9 8 8 9 9 10 11 11 11 11 11 9 9 8 8 11 11 11 11 10
7 4 3 2 3 4 6 6 2 3 7 6 1 7 6 6 5 4 6 6 8 8 8 8 8 8 8 9 9 10 11 11 11 11 11 10 9 10 10 10 9 7 10 16
7 2 4 3 3 1 3 4 4 4 5 6 9 3 5 7 3 5 5 6 8 8 7 7 7 7 7 8 8 9 9 10 10 11 11 14 10 9 10 9 11 10 13 18
5 4 4 4 2 2 1 3 2 4 5 3 6 2 6 7 3 3 5 7 8 8 7 7 7 8 7 8 8 8 9 10 10 11 11 11 10 9 11 9 10 11 13 16
4 3 3 4 5 4 3 4 3 3 5 3 5 1 7 7 4 5 6 6 7 8 8 8 8 8 8 8 8 9 9 9 10 10 11 11 11 10 11 12 12 16 14 14
6 3 3 1 1 1 5 5 2 2 3 4 4 2 7 6 5 6 6 8 8 8 8 8 8 8 9 9 9 9 9 10 10 10 11 11 11 12 12 13 13 17 14 12
3 4 4 5 3 0 4 5 7 5 5 6 7 3 4 5 5 6 8 9 9 8 8 8 8 8 9 9 9 10 10 10 11 11 11 11 11 12 13 13 14 15 14 12
3 4 5 8 7 4 7 7 7 9 9 7 8 7 4 6 5 7 8 9 8 8 8 9 9 9 9 10 10 10 10 9 10 10 10 10 10 11 12 14 14 13 13 15
2 4 4 6 3 3 8 10 10 9 9 10 10 6 7 5 6 7 8 8 7 7 8 9 9 10 10 11 11 10 10 10 10 10 10 10 10 11 12 14 14 14 13 12
2 3 3 5 3 6 8 5 11 7 7 6 5 1 5 4 6 6 7 8 6 7 7 8 9 9 10 10 10 10 11 11 11 10 9 10 10 12 13 15 14 13 11 11
2 2 3 5 7 6 4 3 1 6 6 6 4 2 5 6 7 9 9 7 6 6 7 7 8 8 9 8 9 10 11 11 11 10 10 10 11 11 11 11 12 11 9 10
4 3 2 2 4 9 3 4 3 4 6 5 4 4 6 7 5 6 7 7 6 5 5 5 6 8 9 9 10 10 11 11 11 11 11 11 11 11 11 11 11 10 9 9
2 3 2 3 3 7 4 6 4 3 5 5 6 6 6 5 1 2 4 6 5 5 4 5 7 7 8 9 9 10 12 11 12 13 13 12 11 11 11 11 10 9 9 10
3 4 4 5 7 10 3 7 7 4 5 8 7 7 6 4 4 6 7 6 5 5 6 7 7 7 8 9 9 10 11 11 12 12 13 12 11 11 11 10 9 10 10 11
8 6 7 6 6 10 8 9 8 6 6 8 8 7 7 8 9 7 6 5 5 6 6 7 7 8 8 8 8 10 11 11 12 12 13 12 11 12 13 10 9 9 9 9
7 7 5 8 9 2 9 8 4 8 7 7 7 8 8 7 7 7 5 5 5 5 6 6 7 8 8 8 8 10 11 11 12 12 12 11 12 10 10 9 8 8 7 7
6 3 2 7 7 7 10 7 8 7 8 10 10 9 8 7 8 7 5 4 4 4 5 6 7 8 8 9 9 9 10 11 12 13 11 10 11 11 9 9 8 7 8 7
6 8 5 8 5 6 9 9 9 9 12 12 9 8 8 9 8 6 4 3 3 3 4 5 6 7 8 9 9 9 9 11 11 12 10 10 11 10 9 10 9 10 7 10
7 9 9 9 7 8 8 12 12 13 12 12 11 9 8 8 9 7 5 3 2 3 4 5 7 8 8 9 9 9 9 11 11 12 10 8 8 9 9 8 9 17 17 19
Wind_Direction
40 52 33 7 356 329 3 1 66 110 132 227 165 151 161 174 184 59 41 21 16 38 36 34 33 39 24 14 5 357 359 354 352 352 346 344 342 337 336 346 346 345 347 343
90 50 359 341 348 327 351 346 55 129 141 229 177 182 161 172 134 72 349 341 7 26 22 21 28 34 20 15 7 355 359 352 352 351 343 340 333 329 335 341 338 342 344 340
76 30 325 13 26 347 355 34 348 323 135 233 224 218 172 162 149 172 225 18 34 26 16 13 22 24 16 17 11 355 352 349 349 349 344 341 330 333 337 337 333 340 340 336
73 23 337 50 40 345 28 33 321 281 206 215 177 256 164 165 182 192 129 52 38 26 16 21 22 15 14 19 11 353 345 345 347 348 343 343 342 338 336 334 331 336 336 333
75 22 15 29 7 337 327 339 280 275 237 264 196 243 139 155 188 148 74 49 33 24 25 29 19 8 15 20 8 351 342 342 344 346 340 339 335 332 330 330 331 332 331 333
113 99 47 348 290 261 287 259 227 256 240 260 198 191 148 167 128 85 50 32 28 22 27 27 12 5 15 14 1 348 343 343 344 343 337 338 334 333 333 334 333 331 329 332
136 104 69 355 320 322 339 333 293 256 226 218 115 228 95 87 79 70 32 26 28 24 27 18 7 8 10 1 355 350 347 343 344 342 340 335 333 333 331 333 330 329 331 331
174 123 42 26 22 329 326 2 22 321 309 314 244 128 111 111 114 104 46 38 28 29 31 20 12 10 2 355 353 350 346 342 342 341 338 330 332 332 328 327 325 326 328 324
359 89 141 73 6 340 350 38 4 283 277 276 313 98 132 140 159 77 34 30 30 35 30 17 11 7 360 355 353 347 343 340 339 338 335 331 332 329 326 324 322 324 325 326
330 327 136 136 220 158 22 337 317 304 326 306 296 108 160 159 89 26 14 24 30 35 24 16 11 4 358 354 348 344 339 336 334 336 335 334 327 326 328 326 327 327 326 326
332 307 171 195 235 60 215 227 282 271 242 267 296 317 109 125 120 25 20 35 39 33 26 17 7 1 353 350 346 340 337 335 335 333 331 327 326 328 331 328 327 326 323 327
24 320 281 105 69 34 324 327 332 297 304 284 278 284 140 150 131 68 34 43 50 40 30 18 5 355 349 348 344 341 337 338 335 331 329 327 329 330 330 329 329 327 322 327
354 298 277 256 146 237 231 200 228 300 290 263 263 295 167 160 88 61 42 51 47 32 22 11 360 352 348 345 343 341 341 339 332 332 329 328 329 329 330 329 328 324 321 324
323 288 271 292 331 11 255 197 187 210 236 252 250 320 157 109 53 40 46 58 45 23 16 4 354 349 346 343 342 338 340 331 331 331 325 325 326 328 328 327 324 321 323 324
293 286 291 288 278 232 256 262 236 213 230 254 279 333 51 84 44 43 53 55 32 12 9 1 351 345 342 341 337 335 329 325 327 320 318 319 322 323 324 324 322 323 326 325
242 284 300 284 211 235 260 240 236 246 238 249 277 307 105 64 51 40 61 58 26 8 3 355 347 343 340 335 331 328 324 326 319 313 313 317 321 324 324 323 326 327 324 321
204 286 294 284 292 277 273 242 199 210 210 224 251 133 97 48 38 28 78 66 32 12 359 350 342 338 330 323 325 327 330 322 317 316 318 321 321 322 323 329 328 325 322 324
310 265 264 295 338 269 242 8 306 207 227 220 232 76 82 73 54 73 81 67 38 15 357 341 332 324 316 320 328 328 323 319 320 325 328 326 323 319 321 325 325 323 321 320
336 299 293 340 295 278 227 183 183 206 265 209 186 128 96 70 61 88 66 68 50 21 359 334 325 318 324 330 328 326 324 323 329 334 333 331 326 325 328 329 327 327 325 322
279 297 267 171 241 258 246 134 95 89 264 156 133 125 104 78 308 150 95 75 54 24 356 338 332 331 330 322 323 328 328 331 337 336 335 331 329 331 330 329 327 326 328 331
192 201 211 213 236 266 149 132 123 171 238 135 128 122 117 129 139 125 106 79 48 25 359 353 343 332 321 318 330 330 330 336 335 333 331 332 335 335 333 331 330 332 338 340
188 194 213 198 226 259 150 148 189 205 121 125 122 120 121 113 110 109 98 80 48 19 360 354 341 326 320 329 337 331 332 331 333 334 334 337 339 339 342 336 337 338 343 346
211 206 213 209 222 178 160 185 164 129 139 128 120 119 122 123 124 117 104 81 51 22 359 348 334 323 326 336 341 333 328 333 337 337 336 338 338 335 337 340 341 341 343 350
224 159 244 276 259 189 185 151 134 141 129 119 123 125 128 128 121 118 107 81 48 18 356 343 331 328 331 337 337 326 328 339 339 335 334 341 340 339 341 345 345 346 345 357
223 161 217 254 250 131 181 159 142 116 112 113 114 120 130 128 132 137 134 98 56 6 347 339 331 327 327 330 329 330 345 344 339 333 335 345 346 339 340 346 350 354 354 11
205 187 197 231 215 181 192 161 143 138 140 140 135 129 128 133 141 147 147 116 68 357 349 341 333 328 323 326 328 339 350 345 340 338 343 348 346 343 343 344 349 0 5 11
Height
1566 1572 1580 1580 1577 1575 1572 1573 1579 1592 1594 1594 1596 1605 1610 1613 1614 1615 1616 1616 1616 1614 1613 1610 1607 1602 1598 1593 1587 1582 1576 1570 1564 1558 1552 1546 1541 1537 1534 1530 1525 1521 1516 1511
1573 1582 1582 1578 1576 1574 1574 1576 1580 1592 1593 1593 1597 1602 1607 1611 1612 1614 1615 1615 1614 1613 1612 1610 1606 1601 1596 1591 1586 1580 1575 1570 1564 1558 1552 1547 1542 1537 1533 1528 1524 1519 1515 1510
1583 1588 1582 1579 1580 1580 1576 1584 1586 1588 1594 1595 1598 1600 1604 1607 1611 1613 1614 1614 1613 1612 1611 1608 1604 1600 1595 1590 1584 1579 1574 1569 1563 1557 1551 1545 1540 1535 1529 1524 1520 1516 1512 1508
1585 1586 1584 1582 1586 1585 1583 1587 1587 1586 1594 1592 1598 1597 1601 1604 1608 1610 1612 1612 1612 1611 1609 1606 1602 1598 1594 1589 1583 1578 1573 1568 1562 1556 1550 1544 1538 1533 1528 1524 1518 1514 1509 1505
1590 1590 1589 1589 1590 1588 1586 1585 1586 1585 1588 1590 1592 1595 1597 1602 1605 1608 1610 1610 1610 1609 1607 1604 1600 1597 1593 1588 1582 1577 1571 1566 1561 1555 1549 1543 1538 1533 1527 1522 1516 1511 1505 1501
1590 1591 1592 1592 1589 1587 1585 1582 1584 1585 1588 1591 1575 1587 1592 1599 1601 1606 1608 1609 1608 1607 1605 1602 1599 1596 1591 1586 1580 1575 1570 1564 1559 1553 1548 1542 1536 1531 1525 1519 1513 1508 1503 1498
1590 1591 1592 1592 1588 1586 1586 1587 1589 1588 1590 1580 1574 1578 1599 1604 1605 1607 1609 1608 1607 1606 1603 1601 1597 1593 1588 1583 1578 1573 1568 1562 1556 1551 1546 1540 1535 1529 1524 1518 1512 1506 1500 1495
1586 1596 1596 1595 1596 1598 1590 1591 1604 1608 1595 1582 1570 1583 1607 1605 1606 1607 1607 1607 1606 1604 1602 1599 1596 1591 1586 1582 1577 1571 1566 1560 1554 1549 1543 1538 1533 1528 1522 1517 1511 1506 1500 1494
1592 1597 1598 1597 1597 1596 1595 1598 1599 1604 1595 1591 1575 1606 1607 1605 1605 1606 1606 1605 1603 1602 1600 1598 1594 1590 1585 1580 1575 1570 1564 1558 1553 1547 1541 1536 1531 1526 1520 1515 1509 1504 1498 1492
1597 1594 1596 1597 1598 1598 1597 1599 1600 1601 1606 1604 1584 1580 1597 1604 1604 1604 1604 1602 1601 1600 1598 1596 1592 1588 1584 1579 1574 1568 1563 1557 1551 1545 1539 1534 1529 1523 1518 1512 1506 1501 1495 1489
1599 1599 1597 1597 1595 1595 1596 1596 1596 1599 1600 1607 1604 1596 1598 1602 1602 1602 1602 1601 1600 1599 1597 1594 1591 1587 1582 1578 1572 1567 1561 1555 1549 1543 1537 1531 1526 1521 1515 1509 1503 1497 1492 1486
1601 1602 1596 1595 1599 1598 1598 1597 1599 1606 1600 1595 1600 1601 1598 1599 1600 1600 1601 1600 1599 1598 1596 1593 1589 1585 1580 1575 1570 1565 1559 1553 1547 1541 1535 1529 1523 1518 1512 1506 1500 1494 1489 1484
1604 1603 1601 1600 1603 1603 1599 1596 1598 1601 1605 1605 1604 1598 1598 1597 1598 1599 1599 1598 1598 1597 1594 1591 1588 1583 1578 1573 1568 1562 1557 1551 1544 1539 1532 1526 1520 1514 1508 1502 1496 1491 1486 1481
1606 1604 1602 1603 1597 1598 1595 1594 1598 1602 1606 1600 1591 1587 1597 1596 1596 1596 1596 1596 1597 1596 1593 1590 1586 1582 1577 1571 1566 1560 1554 1548 1542 1536 1530 1524 1518 1512 1506 1500 1494 1488 1484 1478
1606 1604 1595 1593 1591 1592 1594 1594 1594 1598 1597 1597 1588 1587 1591 1594 1594 1595 1595 1595 1595 1594 1592 1588 1584 1580 1575 1569 1564 1558 1552 1546 1540 1534 1528 1522 1516 1510 1504 1497 1491 1486 1481 1476
1605 1604 1598 1594 1588 1593 1593 1590 1591 1590 1589 1589 1588 1589 1591 1592 1593 1593 1593 1593 1594 1593 1590 1587 1583 1578 1573 1567 1561 1556 1550 1545 1538 1532 1526 1521 1514 1508 1502 1496 1490 1485 1479 1474
1604 1603 1601 1601 1587 1589 1588 1578 1581 1583 1582 1584 1586 1587 1588 1589 1591 1592 1591 1592 1593 1591 1589 1586 1581 1577 1571 1566 1561 1555 1549 1543 1536 1531 1525 1519 1513 1507 1501 1495 1490 1484 1478 1473
1604 1603 1605 1604 1601 1601 1577 1578 1575 1576 1577 1578 1580 1583 1586 1589 1590 1590 1590 1591 1591 1589 1587 1584 1580 1575 1570 1565 1560 1555 1548 1542 1536 1530 1523 1517 1511 1506 1500 1495 1489 1484 1478 1473
1604 1604 1603 1609 1608 1595 1579 1578 1578 1579 1579 1576 1578 1582 1585 1587 1589 1590 1590 1590 1589 1588 1585 1582 1578 1574 1569 1564 1559 1553 1547 1541 1535 1528 1521 1516 1510 1505 1500 1494 1489 1484 1479 1473
1606 1606 1609 1610 1613 1600 1574 1577 1577 1581 1583 1576 1578 1581 1584 1586 1590 1591 1590 1588 1587 1586 1584 1581 1577 1573 1568 1563 1558 1552 1546 1540 1534 1527 1521 1516 1511 1506 1500 1495 1490 1485 1480 1474
1606 1607 1609 1609 1609 1588 1575 1576 1580 1586 1576 1575 1577 1580 1583 1585 1587 1589 1587 1587 1586 1584 1583 1580 1576 1572 1567 1562 1558 1552 1546 1540 1534 1528 1522 1516 1511 1506 1501 1496 1491 1486 1481 1475
1596 1599 1599 1598 1602 1587 1574 1575 1577 1574 1571 1573 1576 1579 1582 1583 1584 1585 1585 1585 1585 1584 1582 1579 1575 1571 1567 1562 1557 1552 1546 1541 1534 1528 1522 1516 1511 1506 1502 1496 1491 1486 1481 1476
1582 1580 1579 1579 1576 1565 1566 1566 1568 1569 1571 1573 1575 1578 1580 1582 1582 1583 1584 1584 1584 1583 1581 1578 1575 1571 1567 1563 1558 1552 1547 1541 1534 1528 1522 1517 1511 1507 1502 1497 1492 1487 1482 1478
1573 1571 1574 1571 1563 1561 1562 1564 1566 1568 1570 1571 1574 1576 1578 1579 1580 1581 1582 1583 1583 1582 1580 1577 1574 1570 1567 1563 1558 1553 1548 1542 1535 1528 1523 1518 1512 1507 1503 1499 1494 1489 1484 1480
1566 1569 1571 1567 1559 1558 1559 1560 1563 1566 1567 1570 1572 1574 1576 1577 1578 1580 1580 1581 1581 1580 1579 1576 1573 1570 1566 1562 1558 1553 1548 1542 1535 1529 1524 1519 1514 1509 1505 1500 1496 1491 1487 1483
1558 1559 1561 1557 1550 1552 1552 1555 1558 1561 1564 1568 1570 1572 1573 1575 1576 1577 1579 1579 1580 1579 1577 1575 1572 1569 1566 1562 1558 1553 1548 1542 1536 1530 1525 1520 1515 1510 1507 1502 1497 1493 1490 1485